Weather History for Kulusuk, Greenland

Change the Weather History Date:

Sunday, November 9, 2014

  Actual Average Record
Temperature  
Mean Temperature 25 °F -  
Max Temperature 27 °F 26 °F 39 °F (2002)
Min Temperature 23 °F 23 °F 15 °F (2012)
Degree Days  
Heating Degree Days 40    
Moisture  
Dew Point 15 °F    
Average Humidity 60    
Maximum Humidity 74    
Minimum Humidity 34    
Precipitation  
Precipitation 0.00 in - - ()
Sea Level Pressure  
Sea Level Pressure 30.02 in    
Wind  
Wind Speed 16 mph ()    
Max Wind Speed 26 mph    
Max Gust Speed 36 mph    
Visibility 6.9 miles    
Events Snow    
Averages and records for this station are not official NWS values.
T = Trace of Precipitation, MM = Missing Value Source: Averaged Metar Reports

Daily Weather History Graph

Daily Weather History Graph

Search for Another Location

Airport:

Trip Planner

Search our weather history database for the weather conditions in past years. The results will help you decide how hot, cold, wet, or windy it might be!

Date:

Astronomy

Nov. 09, 2014 Rise Set
Actual Time 7:49 AM WGT 2:34 PM WGT
Civil Twilight 6:47 AM WGT 3:35 PM WGT
Nautical Twilight 5:45 AM WGT 4:38 PM WGT
Astronomical Twilight 4:46 AM WGT 5:37 PM WGT
Moon 4:33 PM WGT (11/9) 10:39 AM WGT (11/9)
Length of Visible Light 8h 48m
Length of Day
6h 45m
Waning Gibbous, 92% of the Moon is Illuminated
Nov 9
Waning Gibbous
Nov 14
Last Quarter
Nov 22
New
Nov 29
First Quarter
Dec 6
Full

Hourly Weather History & Observations

Time (WGT) Temp. Windchill Dew Point Humidity Pressure Visibility Wind Dir Wind Speed Gust Speed Precip Events Conditions
12:00 AM 28 °F - 16 °F 49% 30.09 in 5 mi ENE 26.5 mph - - Snow Light Snow Showers
12:50 AM 28.4 °F 13.8 °F 17.6 °F 64% 30.06 in 6.2 mi East 25.3 mph - N/A Snow Light Snow Showers
1:50 AM 28.4 °F 14.1 °F 19.4 °F 69% 30.06 in 6.2 mi ENE 24.2 mph - N/A Snow Light Snow Showers
2:50 AM 26.6 °F 13.1 °F 17.6 °F 69% 30.06 in 6.2 mi East 19.6 mph - N/A Snow Light Snow Showers
3:00 AM 27 °F - 17 °F 52% 30.09 in 19 mi East 19.6 mph - - Snow Light Snow Showers
3:50 AM 26.6 °F 12.7 °F 17.6 °F 69% 30.06 in 6.2 mi ENE 20.7 mph - N/A   Mostly Cloudy
4:50 AM 26.6 °F 11.7 °F 15.8 °F 64% 30.06 in 6.2 mi ENE 24.2 mph - N/A   Mostly Cloudy
5:50 AM 26.6 °F 11.7 °F 15.8 °F 64% 30.06 in 6.2 mi ENE 24.2 mph 35.7 mph N/A Snow Light Snow Showers
6:00 AM 26 °F - 13 °F 45% 30.07 in 12 mi ENE 24.2 mph - - Snow Light Snow Showers
6:50 AM 26.6 °F 12.4 °F 14.0 °F 59% 30.06 in 6.2 mi ENE 21.9 mph - N/A Snow Light Snow Showers
7:50 AM 26.6 °F 12.7 °F 15.8 °F 64% 30.04 in 6.2 mi ENE 20.7 mph - N/A Snow Light Snow Showers
8:50 AM 26.6 °F 12.4 °F 15.8 °F 64% 30.04 in 6.2 mi ENE 21.9 mph - N/A Snow Light Snow Showers
9:00 AM 26 °F - 13 °F 46% 30.05 in 7 mi ENE 21.9 mph - - Snow Light Snow Showers
9:50 AM 26.6 °F 14.3 °F 15.8 °F 64% 30.04 in 6.2 mi ENE 16.1 mph - N/A Snow Light Snow Showers
10:50 AM 24.8 °F 11.1 °F 15.8 °F 69% 30.01 in 6.2 mi ENE 18.4 mph - N/A Snow Light Snow Showers
11:50 AM 26.6 °F 14.7 °F 15.8 °F 64% 30.01 in 6.2 mi East 15.0 mph - N/A Snow Light Snow Showers
12:00 PM 25 °F - 15 °F 55% 30.03 in 3 mi ENE 11.5 mph - - Snow Light Snow Showers
12:50 PM 24.8 °F 12.9 °F 17.6 °F 74% 30.01 in 6.2 mi ENE 13.8 mph - N/A Snow Light Snow
1:50 PM 24.8 °F 13.4 °F 17.6 °F 74% 30.01 in 5.0 mi ENE 12.7 mph - N/A Snow Light Snow
2:50 PM 24.8 °F 15.3 °F 15.8 °F 69% 29.98 in 6.2 mi ENE 9.2 mph - N/A Snow Light Snow
3:00 PM 25 °F - 15 °F 53% 30.01 in 14 mi ENE 11.5 mph - - Snow Light Snow
3:50 PM 24.8 °F 16.1 °F 15.8 °F 69% 29.98 in 6.2 mi ENE 8.1 mph - N/A Snow Light Snow
4:50 PM 24.8 °F 16.1 °F 14.0 °F 64% 29.98 in 6.2 mi NE 8.1 mph - N/A Snow Light Snow Showers
5:50 PM 24.8 °F 16.1 °F 12.2 °F 59% 29.98 in 6.2 mi NNE 8.1 mph - N/A Snow Light Snow Showers
6:00 PM 26 °F - 11 °F 39% 29.99 in 22 mi NNE 6.9 mph - - Snow Snow
6:50 PM 24.8 °F 15.3 °F 10.4 °F 54% 29.98 in 6.2 mi North 9.2 mph - N/A   Mostly Cloudy
7:50 PM 24.8 °F 16.9 °F 12.2 °F 59% 29.98 in 6.2 mi NNE 6.9 mph - N/A   Mostly Cloudy
8:50 PM 24.8 °F 16.1 °F 12.2 °F 59% 29.95 in 6.2 mi NNE 8.1 mph - N/A   Mostly Cloudy
9:00 PM 25 °F - 8 °F 34% 29.98 in 22 mi NNE 10.4 mph - -   Partly Cloudy
9:50 PM 24.8 °F 16.1 °F 10.4 °F 54% 29.95 in 6.2 mi North 8.1 mph - N/A   Partly Cloudy
10:50 PM 23.0 °F 14.7 °F 12.2 °F 63% 29.92 in 6.2 mi NNE 6.9 mph - N/A   Partly Cloudy
11:50 PM 23.0 °F - 10.4 °F 59% 29.92 in 6.2 mi Variable 2.3 mph - N/A   Unknown